Temp
21 21 21 20 20 20 20 20 20 19 19 19 19 18 18 17 16 16 16 15 15 15 15 15 15 15 15 15 15 16 15 15 15 14 14 14 14 13 13 13 13 13
21 21 21 21 21 21 20 20 20 19 19 19 19 19 18 17 16 16 16 15 15 15 15 15 15 15 15 15 15 15 15 15 15 14 14 14 14 14 13 13 13 13
20 21 21 21 21 21 20 20 20 20 19 19 19 19 18 17 16 16 16 15 15 15 15 15 15 15 15 15 15 15 15 15 15 14 14 14 14 14 14 13 13 13
20 20 20 21 21 21 20 20 20 20 19 19 19 19 18 17 17 16 16 16 15 15 15 15 15 15 15 15 15 15 15 15 15 14 14 14 14 14 14 14 14 13
20 20 20 20 20 21 20 20 20 20 20 19 19 19 18 17 17 16 16 16 16 15 15 15 15 15 15 15 15 15 15 15 14 14 15 14 14 14 13 13 13 13
20 20 20 20 20 20 20 20 20 20 20 19 19 19 18 17 17 17 16 16 16 15 15 15 15 15 15 15 15 15 15 15 14 14 15 14 14 14 13 13 13 13
20 20 20 20 20 19 19 19 19 19 19 19 19 19 18 18 17 17 17 16 16 16 15 15 15 15 15 15 15 15 15 15 14 14 15 15 14 14 13 13 14 14
19 19 19 19 19 19 18 18 18 18 18 19 19 19 19 18 18 17 17 17 16 16 16 16 15 15 15 15 15 15 15 14 14 14 15 15 14 14 14 13 13 13
18 18 18 18 18 19 18 17 17 17 17 18 18 19 19 18 18 18 17 17 17 16 16 16 16 16 15 15 15 15 15 14 14 14 15 14 14 14 14 13 13 13
18 17 18 18 18 18 17 17 17 17 17 17 17 18 18 18 18 18 18 17 17 17 17 16 16 16 15 15 15 15 15 14 14 14 14 14 14 14 14 14 13 13
17 17 17 17 17 17 17 17 17 17 17 17 17 17 17 17 17 18 18 18 17 17 17 16 16 16 15 15 15 15 15 14 14 14 14 14 14 14 13 13 13 13
16 16 15 15 16 16 16 16 16 16 16 17 17 17 17 17 17 17 18 18 18 17 17 17 16 16 15 15 15 15 14 14 14 14 14 13 13 13 13 13 12 13
15 15 15 15 16 16 16 16 16 16 16 16 17 17 17 17 17 17 17 17 18 18 17 17 17 16 15 15 15 15 14 14 14 13 13 13 13 13 13 12 12 12
15 15 15 15 16 16 16 16 16 16 16 16 16 16 16 16 17 17 16 16 17 17 17 17 16 16 15 15 15 15 14 14 13 13 13 13 12 12 12 12 12 12
15 15 15 15 15 15 16 16 16 16 16 16 16 16 16 16 16 16 16 15 16 17 17 17 16 16 15 15 15 14 14 14 13 13 13 12 12 12 12 11 11 11
16 16 16 15 15 16 16 16 16 16 16 16 16 16 16 16 16 16 15 15 16 16 16 16 16 15 15 15 14 14 14 13 13 13 12 12 12 12 11 11 11 11
16 16 16 16 16 16 16 16 16 16 16 16 16 16 16 16 16 16 15 15 15 15 15 15 15 15 15 14 14 14 13 13 12 12 12 12 12 12 12 11 11 11
16 16 16 16 16 16 16 16 16 16 16 16 16 16 16 16 16 15 16 15 15 15 14 14 14 14 14 13 13 13 12 12 12 12 12 12 12 12 12 12 11 11
16 16 16 16 16 16 16 16 16 16 16 16 16 16 15 15 15 15 15 15 14 14 13 13 13 13 13 12 12 12 12 11 12 12 11 11 11 11 12 12 11 11
16 16 16 16 16 16 16 16 16 16 16 16 16 16 15 15 14 14 14 14 14 14 12 11 11 11 12 12 11 11 11 10 11 11 11 11 11 11 11 11 11 11
16 15 15 15 15 15 15 16 16 16 16 16 16 16 15 15 14 14 14 14 13 13 11 10 10 11 11 11 10 10 10 10 11 11 10 11 11 11 10 10 10 10
15 15 15 15 15 15 15 16 16 16 15 15 15 15 15 15 15 14 14 13 12 11 10 10 10 10 10 10 10 9 9 9 10 10 10 10 10 10 10 10 10 10
15 15 15 15 15 15 15 15 15 15 15 15 15 15 15 15 15 15 14 13 12 10 9 9 9 9 9 9 9 9 9 9 9 10 10 10 10 10 10 10 10 10
15 15 15 15 15 15 15 15 15 15 15 15 15 15 15 14 14 14 13 12 11 10 9 9 9 9 8 8 8 8 8 8 9 10 10 11 11 10 10 10 10 10
15 15 14 14 14 14 14 14 15 15 15 15 15 15 15 14 14 13 12 11 11 10 9 9 9 8 8 8 8 8 8 8 8 9 10 11 11 11 11 11 10 10
15 14 14 14 14 14 14 14 14 15 15 15 14 15 15 15 14 12 11 10 10 9 9 8 8 8 7 8 8 7 7 8 8 9 10 11 11 11 11 10 10 10
Height
797 798 800 801 802 803 804 805 806 808 809 810 812 813 815 816 818 819 819 820 821 821 822 822 823 823 824 824 825 825 826 826 826 827 827 827 828 828 828 828 828 829
795 797 798 800 801 802 803 804 805 806 808 809 810 812 814 815 817 818 819 820 820 821 821 822 822 823 824 825 825 826 826 827 827 827 828 828 828 828 829 829 829 829
794 795 797 798 799 800 802 803 805 806 807 808 809 811 812 814 816 817 818 819 820 821 821 822 822 823 824 824 825 826 826 827 827 828 828 828 828 829 829 829 829 829
792 794 795 797 798 799 801 803 804 805 806 807 809 810 811 813 814 816 817 818 819 820 821 821 822 822 823 824 825 825 826 827 827 827 828 828 828 828 828 829 829 829
791 792 794 796 797 799 800 802 804 805 806 807 808 809 810 812 813 814 816 817 818 819 820 821 821 822 823 823 824 824 825 826 826 827 827 828 828 828 828 828 828 828
790 791 793 795 797 799 800 801 803 804 805 807 808 809 809 811 812 813 814 815 817 818 819 820 820 821 822 822 823 824 824 825 825 826 827 827 827 828 828 828 828 828
789 791 792 794 795 798 800 801 803 803 805 807 808 808 809 810 811 811 812 813 814 816 817 818 819 820 821 821 822 823 823 824 825 825 826 826 827 827 827 828 828 828
789 790 792 794 794 796 798 800 803 805 806 807 807 808 809 810 810 810 810 811 812 813 815 816 817 818 819 820 821 822 822 823 823 824 824 825 825 826 826 827 827 827
789 790 791 792 794 795 796 798 801 804 806 806 806 807 808 809 809 809 809 809 810 811 812 813 815 816 816 817 818 819 820 821 822 822 823 824 824 825 825 825 826 826
788 789 790 791 793 794 795 796 798 801 803 803 804 805 806 807 808 808 808 808 808 809 810 811 812 813 814 815 816 817 818 819 820 821 821 822 823 823 823 824 824 825
787 788 790 791 792 792 793 794 796 798 800 801 801 802 802 804 806 806 806 806 806 806 806 807 808 809 811 813 814 816 817 818 819 819 820 821 821 822 822 823 823 824
787 789 790 791 790 790 791 793 795 797 797 798 799 799 799 801 802 803 804 804 804 803 803 804 805 807 809 811 813 814 815 817 817 818 819 819 820 821 822 822 823 823
785 789 791 791 790 789 790 791 793 795 795 795 796 797 798 799 799 800 801 802 802 802 802 803 804 806 808 809 811 812 813 815 816 817 818 818 819 820 820 821 821 822
785 787 790 791 790 789 790 790 791 792 792 792 793 793 795 797 797 798 798 800 802 801 801 801 802 803 805 807 809 810 812 813 814 816 817 817 818 818 819 820 820 821
786 787 789 790 790 789 789 789 789 790 790 789 789 789 791 793 795 796 795 797 800 800 799 800 800 800 800 803 806 808 810 811 813 815 816 817 817 818 818 819 819 819
787 787 789 789 788 788 787 787 787 788 789 789 789 789 790 791 792 793 792 794 796 797 797 797 797 798 798 799 802 805 808 810 812 814 816 816 816 817 817 818 818 818
786 787 787 787 787 787 787 786 787 788 788 789 789 789 789 789 790 790 790 791 792 793 794 795 795 796 796 798 800 803 806 808 811 813 814 815 815 816 816 816 817 817
786 787 787 787 787 787 787 787 787 787 787 787 787 787 787 787 788 788 788 788 789 790 791 793 794 794 796 798 800 801 804 806 809 811 812 813 814 815 815 815 815 816
786 786 786 787 787 787 787 786 786 786 785 785 785 784 785 785 786 787 787 787 787 789 791 792 792 794 795 798 800 801 803 805 807 809 810 811 813 813 813 813 813 814
785 785 785 786 786 786 786 785 785 784 784 783 783 782 783 783 784 785 786 786 787 788 790 790 791 793 795 797 799 801 803 805 806 808 809 810 811 812 812 812 812 813
783 783 784 784 784 784 784 783 783 783 782 782 781 781 781 781 782 783 784 785 786 786 787 788 790 792 794 796 798 800 802 804 805 806 808 809 809 810 811 811 811 811
781 782 782 782 783 783 783 782 782 781 781 781 780 780 780 780 780 781 782 783 784 785 785 787 790 791 793 795 797 799 801 803 805 806 807 808 808 809 810 810 809 810
780 780 781 781 781 781 781 780 780 779 779 779 778 778 778 779 779 779 780 782 784 785 786 787 789 791 792 794 796 797 799 802 805 806 806 807 807 808 808 808 807 807
779 779 780 780 780 779 779 778 778 777 777 777 777 777 777 777 778 778 780 782 783 785 787 788 789 790 791 793 795 797 799 801 803 804 805 805 806 806 806 806 805 805
777 777 778 778 778 777 777 776 776 775 775 775 775 775 775 776 777 778 780 782 785 787 788 788 789 790 791 793 795 797 799 799 800 802 803 804 804 804 804 803 803 802
775 775 775 775 775 775 775 775 774 773 773 774 774 774 774 775 776 778 780 783 786 789 789 789 789 790 792 794 795 796 798 799 800 802 802 802 802 802 801 801 801 800
Wind_Speed
15 15 14 14 13 13 13 13 13 13 11 10 10 10 10 11 11 10 9 9 9 8 8 7 7 7 7 6 6 7 7 7 7 6 6 6 6 6 6 7 7 6
15 15 14 14 14 12 13 13 13 13 13 11 10 11 11 12 12 11 10 10 9 9 9 8 8 7 6 6 6 6 6 6 6 5 5 5 5 5 5 5 6 5
16 15 14 14 14 13 13 13 13 13 13 13 12 12 13 14 13 12 11 11 10 10 10 9 9 8 7 7 6 6 6 5 5 5 5 5 4 4 4 3 3 4
17 16 15 14 14 13 13 13 13 13 13 13 13 13 14 15 14 14 13 12 11 11 10 10 9 9 8 8 7 6 6 5 5 5 5 5 4 4 3 3 2 2
17 16 16 15 14 13 13 13 14 13 13 13 14 14 14 15 15 15 15 14 13 12 11 11 10 10 9 9 8 7 7 6 6 5 5 5 5 4 4 3 3 2
15 15 15 15 13 12 12 13 14 13 13 13 14 14 15 16 17 16 17 16 15 14 13 12 12 11 10 9 9 8 8 7 6 6 6 6 5 4 4 4 3 3
11 12 12 11 12 12 12 12 11 11 12 13 13 14 15 17 17 17 18 17 16 16 15 14 14 13 12 11 10 9 8 8 7 7 7 7 6 5 5 4 3 3
8 9 9 8 12 15 13 10 9 9 11 13 14 15 16 17 18 18 19 19 18 17 17 16 15 15 14 13 11 11 10 9 9 9 8 7 7 6 6 5 4 4
7 9 9 9 13 15 12 11 14 14 13 13 14 15 16 18 19 19 19 20 19 19 18 17 17 16 16 15 14 14 13 11 11 10 9 9 8 8 7 6 5 5
6 7 9 11 13 13 11 12 16 19 19 17 16 17 17 18 19 20 20 20 20 20 19 19 19 18 18 17 16 16 14 13 12 12 11 10 9 8 8 7 6 5
4 6 7 9 10 10 11 11 13 16 18 18 18 20 20 19 19 20 21 21 21 21 22 22 22 21 20 18 17 16 15 14 13 12 12 11 10 9 8 7 6 6
1 2 6 8 10 10 10 11 12 13 14 15 15 17 19 20 21 21 21 21 23 23 23 23 22 21 20 19 18 17 16 15 14 13 12 11 10 9 8 7 7 6
7 4 4 5 5 5 6 8 11 13 13 14 14 15 17 19 21 21 22 23 24 23 23 23 22 21 20 19 18 18 17 16 15 13 12 11 10 9 8 8 7 6
6 6 5 5 4 3 3 4 7 11 12 14 15 15 17 19 19 20 23 25 25 24 23 22 21 21 20 19 18 17 17 16 15 14 12 11 10 9 9 8 8 7
4 4 4 5 5 4 4 4 6 8 11 14 15 16 18 19 19 18 20 23 24 24 23 22 22 22 22 21 20 18 16 15 13 13 12 11 10 9 9 8 8 8
4 3 3 4 5 5 5 5 6 7 9 11 13 15 17 19 19 18 19 21 22 24 24 23 22 22 22 24 22 19 16 14 13 11 11 10 9 9 9 9 8 8
5 5 5 5 6 6 6 7 7 9 9 10 11 12 14 16 17 17 20 23 23 25 25 23 20 20 22 25 24 20 16 14 12 11 10 10 9 9 9 9 9 8
4 5 5 6 6 7 7 8 9 10 10 11 11 9 10 12 13 14 17 19 20 21 20 18 17 19 23 25 25 22 18 14 11 11 10 10 10 10 9 8 9 8
3 4 5 6 6 7 8 9 10 10 11 10 10 9 9 9 10 12 11 13 15 15 15 14 14 19 24 25 25 23 19 13 10 10 10 10 10 10 9 8 8 8
3 4 5 6 7 8 9 10 10 10 10 10 10 9 9 9 11 13 13 15 17 15 14 14 17 21 25 26 24 19 14 10 8 9 10 9 10 10 9 9 8 8
3 5 6 7 8 9 10 10 11 11 11 11 10 10 10 11 11 13 16 19 17 15 16 17 20 23 25 24 20 15 13 12 9 9 9 9 9 10 10 10 9 9
4 6 7 8 9 9 10 11 11 11 11 11 11 11 11 11 12 13 16 16 13 15 17 19 22 24 23 20 16 14 15 13 9 9 9 9 9 10 10 10 10 10
6 7 8 8 9 10 11 11 11 10 11 11 11 11 11 11 12 12 12 12 14 15 16 22 25 23 20 18 16 16 16 11 8 8 9 9 9 10 11 11 11 11
7 8 9 9 10 10 10 11 11 10 11 11 11 11 11 11 11 10 8 11 14 14 17 24 26 21 18 18 17 17 15 11 8 7 8 9 9 10 11 10 11 12
8 9 9 9 9 9 10 10 11 11 11 11 11 11 11 10 11 10 10 12 15 14 17 23 23 20 18 18 17 16 14 12 8 6 8 9 9 10 10 9 10 11
10 10 10 9 9 9 9 10 11 11 11 11 12 12 11 9 8 10 13 14 14 13 14 18 20 19 17 16 16 14 12 12 9 7 8 9 8 8 8 9 9 9
Wind_Direction
187 188 187 189 191 185 182 183 177 172 176 177 172 172 171 166 164 163 156 149 144 137 132 127 120 115 109 104 100 99 95 92 87 81 79 74 64 57 51 42 34 28
191 194 192 193 196 193 188 188 183 176 178 181 177 175 172 168 168 168 164 159 156 152 148 142 136 131 126 121 119 115 112 111 108 104 100 95 85 71 60 49 40 28
194 197 198 199 200 197 192 190 189 184 183 182 180 176 171 169 171 173 171 169 166 163 159 154 149 146 142 138 136 131 130 131 129 129 125 117 114 104 90 77 58 40
196 200 203 205 205 202 195 193 194 192 190 186 183 181 175 171 174 176 176 176 175 171 169 165 160 157 154 152 152 148 147 146 145 148 148 140 138 134 128 122 108 86
198 201 203 207 211 210 201 199 203 201 198 194 188 185 180 177 178 179 179 180 180 179 176 173 170 166 165 165 165 163 163 162 162 165 166 160 159 158 159 161 159 161
201 203 207 210 215 222 219 212 209 207 206 201 197 195 189 184 184 183 183 184 185 184 182 180 178 175 174 175 175 175 176 174 173 179 183 178 176 177 178 187 193 197
206 209 216 215 210 219 232 232 225 223 224 217 208 205 198 192 191 189 187 187 189 189 188 186 184 181 181 182 182 184 184 182 181 188 192 186 187 193 191 196 213 221
216 220 228 232 218 215 223 237 245 249 250 244 231 220 213 204 199 195 192 191 192 193 193 192 190 188 185 186 189 188 186 187 189 194 197 193 194 202 200 197 212 233
220 228 231 239 236 229 226 231 237 239 246 253 249 239 227 219 213 205 198 196 195 195 196 196 195 193 190 190 193 191 190 192 193 197 199 196 200 206 205 201 205 221
215 229 232 231 235 240 240 237 239 241 240 240 241 240 238 237 232 218 206 202 199 196 197 198 198 197 195 195 195 194 195 195 195 198 199 200 205 206 205 206 209 221
226 229 234 228 226 235 241 240 244 246 241 235 231 232 233 237 238 228 218 212 206 201 200 200 199 198 196 197 197 196 198 198 197 199 199 200 205 205 207 212 216 221
43 257 253 239 227 228 234 237 240 242 242 239 237 237 232 229 233 236 231 223 215 209 205 201 199 199 197 197 198 197 197 199 199 199 200 200 202 205 210 213 215 221
60 31 310 274 246 237 242 244 247 250 249 245 245 249 247 243 241 238 235 233 228 218 212 206 200 197 197 198 199 197 196 197 198 197 198 198 199 204 208 207 210 217
53 37 355 329 335 324 294 275 266 265 262 255 248 247 250 254 252 241 234 237 237 226 217 210 201 196 196 199 199 197 196 196 195 195 196 195 197 201 203 203 208 212
39 32 357 321 315 317 308 299 291 284 282 277 268 259 253 253 253 247 236 234 235 228 220 213 206 199 195 195 196 194 194 193 192 194 194 192 195 198 197 201 208 211
12 0 330 303 303 307 303 301 295 282 277 277 270 261 256 252 250 246 239 235 233 231 229 221 210 203 197 193 190 189 189 187 186 191 195 193 195 197 196 202 210 215
342 329 320 313 311 305 294 288 279 267 260 259 257 254 255 254 250 246 242 237 235 236 232 219 204 202 200 192 186 183 180 178 179 187 195 197 198 198 201 207 215 222
318 308 304 302 295 288 281 272 266 262 255 251 251 251 256 259 258 255 245 232 227 226 215 201 200 205 199 189 182 176 168 165 175 187 192 198 204 206 209 213 217 225
300 296 291 288 284 283 280 269 261 259 255 254 251 247 251 254 256 260 246 217 212 209 195 194 205 200 191 185 179 173 167 164 179 190 192 200 207 209 214 219 225 233
294 296 295 293 290 288 284 275 267 261 257 258 255 247 242 240 245 249 240 228 225 214 198 199 197 188 186 184 180 181 186 189 192 193 195 204 210 211 219 227 231 238
297 301 301 298 295 291 285 278 269 260 257 256 254 250 242 237 239 236 234 238 231 204 190 191 187 184 187 186 184 188 190 183 183 192 200 212 218 218 225 231 234 238
300 304 304 301 298 292 284 279 270 258 253 251 251 253 247 241 240 233 229 227 205 183 188 189 183 184 187 185 182 177 171 172 184 197 207 219 224 227 234 236 237 240
297 297 298 298 298 293 286 282 274 260 253 248 246 247 244 243 242 236 226 207 180 173 188 189 181 181 184 180 174 167 164 172 194 203 214 226 229 232 239 241 242 242
284 286 289 290 291 292 291 286 277 265 256 249 245 244 241 242 240 226 205 192 184 179 186 187 180 174 173 171 167 164 164 171 190 217 232 233 235 239 241 247 252 249
280 279 280 282 285 288 289 286 279 269 258 252 252 250 246 247 238 211 179 176 186 183 179 180 174 165 165 166 162 164 167 166 177 226 242 236 242 249 249 256 264 268
278 277 277 278 282 285 285 282 277 269 261 256 255 253 252 252 226 184 163 165 173 168 160 164 164 160 162 165 164 164 167 170 186 237 254 245 250 261 266 272 278 286